When you browse on this site, cookies collect data to enhance your experience and personalize the content and advertising you see.
Visit our Privacy Policy to learn more. By continuing to use the site, you agree to this use of cookies and data.
  • In Austria
  • List of Countries
  • For 7 days
  • Water Temperature
  • Satellite Maps
  • Weather Map
  • News
  • Weather Widgets
  • user-avatar
    Login

    Hourly Weather Lezhe

    Today, 21 November, Wednesday

    Time Temperature Precipitation Wind Pressure Humidity
    00:00 +13°C° 2.9 mm 4 mps 731 mmHg 92%
    01:00 +13°C° 2.9 mm 4 mps 731 mmHg 92%
    02:00 +12°C° 2.3 mm 4 mps 731 mmHg 92%
    03:00 +12°C° 2.3 mm 3 mps 731 mmHg 92%
    04:00 +12°C° 2.3 mm 3 mps 731 mmHg 91%
    05:00 +13°C° 1.1 mm 2 mps 731 mmHg 91%
    06:00 +13°C° 1.1 mm 2 mps 731 mmHg 91%
    07:00 +13°C° 1.1 mm 1 mps 732 mmHg 91%
    08:00 +14°C° 0.2 mm 2 mps 732 mmHg 88%
    09:00 +15°C° 0.2 mm 2 mps 733 mmHg 85%
    10:00 +16°C° 0.2 mm 2 mps 733 mmHg 82%
    11:00 +16°C° 0.5 mm 2 mps 733 mmHg 79%
    12:00 +17°C° 0.5 mm 2 mps 733 mmHg 76%
    13:00 +17°C° 0.5 mm 2 mps 733 mmHg 73%
    14:00 +16°C° 0.6 mm 2 mps 734 mmHg 77%
    15:00 +15°C° 0.6 mm 2 mps 734 mmHg 81%
    16:00 +15°C° 0.6 mm 2 mps 734 mmHg 85%
    17:00 +14°C° 0.5 mm 2 mps 735 mmHg 87%
    18:00 +14°C° 0.5 mm 2 mps 735 mmHg 89%
    19:00 +13°C° 0.5 mm 2 mps 735 mmHg 91%
    20:00 +13°C° 0.5 mm 2 mps 736 mmHg 91%
    21:00 +13°C° 0.5 mm 2 mps 736 mmHg 91%
    22:00 +13°C° 0.5 mm 2 mps 736 mmHg 92%
    23:00 +12°C° 0.3 mm 2 mps 737 mmHg 92%

    Tomorrow, 22 November, Thursday

    Time Temperature Precipitation Wind Pressure Humidity
    00:00 +12°C° 0.3 mm 2 mps 737 mmHg 92%
    01:00 +12°C° 0.3 mm 1 mps 737 mmHg 92%
    02:00 +12°C° 0.2 mm 1 mps 737 mmHg 92%
    03:00 +12°C° 0.2 mm 2 mps 737 mmHg 92%
    04:00 +12°C° 0.2 mm 2 mps 737 mmHg 92%
    05:00 +12°C° 0.1 mm 2 mps 737 mmHg 93%
    06:00 +12°C° 0.1 mm 2 mps 737 mmHg 93%
    07:00 +12°C° 0.1 mm 2 mps 738 mmHg 93%
    08:00 +13°C° 0.1 mm 2 mps 738 mmHg 89%
    09:00 +14°C° 0.1 mm 2 mps 738 mmHg 85%
    10:00 +15°C° 0.1 mm 2 mps 738 mmHg 81%
    11:00 +15°C° 0.3 mm 1 mps 738 mmHg 78%
    12:00 +16°C° 0.3 mm 1 mps 738 mmHg 75%
    13:00 +16°C° 0.3 mm 1 mps 738 mmHg 73%
    14:00 +15°C° 0.3 mm 1 mps 738 mmHg 76%
    15:00 +15°C° 0.3 mm 1 mps 738 mmHg 79%
    16:00 +13°C° 0.3 mm 0 mps 738 mmHg 83%
    17:00 +13°C° 0 mm 1 mps 739 mmHg 85%
    18:00 +13°C° 0 mm 1 mps 739 mmHg 86%
    19:00 +12°C° 0 mm 1 mps 740 mmHg 88%
    20:00 +12°C° 0 mm 1 mps 740 mmHg 88%
    21:00 +12°C° 0 mm 1 mps 740 mmHg 88%
    22:00 +12°C° 0 mm 1 mps 740 mmHg 88%
    23:00 +11°C° 0 mm 1 mps 741 mmHg 88%

    Day after tomorrow, 23 November, Friday

    Time Temperature Precipitation Wind Pressure Humidity
    00:00 +11°C° 0 mm 1 mps 741 mmHg 88%
    01:00 +11°C° 0 mm 1 mps 741 mmHg 88%
    02:00 +11°C° 0 mm 1 mps 741 mmHg 87%
    03:00 +10°C° 0 mm 1 mps 741 mmHg 87%
    04:00 +10°C° 0 mm 1 mps 741 mmHg 87%
    05:00 +10°C° 0 mm 1 mps 742 mmHg 86%
    06:00 +10°C° 0 mm 1 mps 742 mmHg 86%
    07:00 +10°C° 0 mm 1 mps 742 mmHg 85%
    08:00 +11°C° 0 mm 1 mps 742 mmHg 79%
    09:00 +13°C° 0 mm 1 mps 743 mmHg 72%
    10:00 +15°C° 0 mm 1 mps 743 mmHg 66%
    11:00 +15°C° 0 mm 1 mps 743 mmHg 62%
    12:00 +16°C° 0 mm 1 mps 742 mmHg 59%
    13:00 +16°C° 0 mm 1 mps 742 mmHg 56%
    14:00 +15°C° 0 mm 1 mps 742 mmHg 60%
    15:00 +14°C° 0 mm 1 mps 742 mmHg 65%
    16:00 +13°C° 0 mm 1 mps 742 mmHg 70%
    17:00 +13°C° 0 mm 1 mps 742 mmHg 72%
    18:00 +12°C° 0 mm 1 mps 742 mmHg 74%
    19:00 +11°C° 0 mm 1 mps 743 mmHg 76%
    20:00 +11°C° 0 mm 1 mps 743 mmHg 76%
    21:00 +10°C° 0 mm 2 mps 743 mmHg 76%
    22:00 +10°C° 0 mm 2 mps 743 mmHg 76%
    23:00 +9°C° 0 mm 2 mps 743 mmHg 77%

    24 November, Saturday

    Time Temperature Precipitation Wind Pressure Humidity
    00:00 +9°C° 0 mm 2 mps 743 mmHg 77%
    01:00 +9°C° 0 mm 2 mps 743 mmHg 77%
    02:00 +9°C° 0 mm 2 mps 742 mmHg 77%
    03:00 +9°C° 0 mm 2 mps 742 mmHg 76%
    04:00 +9°C° 0 mm 2 mps 742 mmHg 76%
    05:00 +9°C° 0 mm 2 mps 742 mmHg 75%
    06:00 +9°C° 0 mm 2 mps 742 mmHg 75%
    07:00 +9°C° 0 mm 2 mps 742 mmHg 74%
    08:00 +12°C° 0 mm 2 mps 742 mmHg 69%
    09:00 +13°C° 0 mm 2 mps 741 mmHg 63%
    10:00 +15°C° 0 mm 2 mps 741 mmHg 58%
    11:00 +15°C° 0 mm 2 mps 741 mmHg 57%
    12:00 +15°C° 0 mm 2 mps 740 mmHg 57%
    13:00 +15°C° 0 mm 2 mps 740 mmHg 56%
    14:00 +15°C° 0.2 mm 2 mps 740 mmHg 60%
    15:00 +14°C° 0.2 mm 2 mps 740 mmHg 65%
    16:00 +13°C° 0.2 mm 2 mps 740 mmHg 70%
    17:00 +13°C° 0.3 mm 2 mps 740 mmHg 71%
    18:00 +13°C° 0.3 mm 2 mps 739 mmHg 72%
    19:00 +12°C° 0.3 mm 2 mps 739 mmHg 73%
    20:00 +12°C° 0.8 mm 2 mps 739 mmHg 76%
    21:00 +12°C° 0.8 mm 2 mps 739 mmHg 78%
    22:00 +11°C° 0.8 mm 3 mps 739 mmHg 81%
    23:00 +12°C° 0.4 mm 2 mps 739 mmHg 82%

    25 November, Sunday

    Time Temperature Precipitation Wind Pressure Humidity
    00:00 +12°C° 0.4 mm 2 mps 739 mmHg 82%
    01:00 +12°C° 0.4 mm 2 mps 739 mmHg 83%
    02:00 +12°C° 0.3 mm 2 mps 738 mmHg 84%
    03:00 +12°C° 0.3 mm 2 mps 738 mmHg 85%
    04:00 +12°C° 0.3 mm 2 mps 738 mmHg 86%
    05:00 +12°C° 0.1 mm 2 mps 738 mmHg 87%
    06:00 +12°C° 0.1 mm 2 mps 738 mmHg 87%
    07:00 +12°C° 0.1 mm 2 mps 737 mmHg 88%
    08:00 +13°C° 0.1 mm 2 mps 737 mmHg 83%
    09:00 +14°C° 0.1 mm 2 mps 737 mmHg 79%
    10:00 +15°C° 0.1 mm 2 mps 737 mmHg 75%
    11:00 +16°C° 0 mm 2 mps 737 mmHg 72%
    12:00 +16°C° 0 mm 2 mps 736 mmHg 70%
    13:00 +17°C° 0 mm 2 mps 735 mmHg 68%
    14:00 +16°C° 0 mm 1 mps 735 mmHg 71%
    15:00 +15°C° 0 mm 1 mps 735 mmHg 75%
    16:00 +14°C° 0 mm 1 mps 734 mmHg 78%
    17:00 +14°C° 0.3 mm 1 mps 734 mmHg 80%
    18:00 +14°C° 0.3 mm 2 mps 734 mmHg 81%
    19:00 +14°C° 0.3 mm 2 mps 734 mmHg 82%
    20:00 +14°C° 1.1 mm 2 mps 734 mmHg 84%
    21:00 +13°C° 1.1 mm 2 mps 733 mmHg 86%
    22:00 +13°C° 1.1 mm 2 mps 733 mmHg 88%
    23:00 +13°C° 1.5 mm 2 mps 733 mmHg 88%

    26 November, Monday

    Time Temperature Precipitation Wind Pressure Humidity
    00:00 +12°C° 1.5 mm 3 mps 732 mmHg 89%
    01:00 +12°C° 1.5 mm 3 mps 731 mmHg 90%
    02:00 +12°C° 2.2 mm 3 mps 731 mmHg 90%
    03:00 +13°C° 2.2 mm 2 mps 730 mmHg 91%
    04:00 +13°C° 2.2 mm 2 mps 730 mmHg 91%
    05:00 +13°C° 1.5 mm 2 mps 730 mmHg 91%
    06:00 +13°C° 1.5 mm 2 mps 730 mmHg 91%
    07:00 +13°C° 1.5 mm 2 mps 730 mmHg 91%
    08:00 +13°C° 0.9 mm 1 mps 730 mmHg 90%
    09:00 +13°C° 0.9 mm 1 mps 731 mmHg 89%
    10:00 +13°C° 0.9 mm 1 mps 731 mmHg 88%
    11:00 +13°C° 0.3 mm 1 mps 731 mmHg 88%
    12:00 +14°C° 0.3 mm 1 mps 730 mmHg 89%
    13:00 +14°C° 0.3 mm 1 mps 730 mmHg 89%
    14:00 +14°C° 0.2 mm 1 mps 730 mmHg 90%
    15:00 +13°C° 0.2 mm 1 mps 731 mmHg 91%
    16:00 +13°C° 0.2 mm 1 mps 731 mmHg 93%
    17:00 +13°C° 0.2 mm 1 mps 731 mmHg 93%
    18:00 +13°C° 0.2 mm 1 mps 731 mmHg 94%
    19:00 +12°C° 0.2 mm 2 mps 732 mmHg 94%
    20:00 +12°C° 0.2 mm 2 mps 732 mmHg 94%
    21:00 +12°C° 0.2 mm 2 mps 732 mmHg 94%
    22:00 +12°C° 0.2 mm 2 mps 732 mmHg 94%
    23:00 +11°C° 0.3 mm 3 mps 732 mmHg 94%
    Show more